Location: Paris
(48.6709°N, 2.3750°E)
Time: 18:16:31
(UTC+02:00)

STARS - Pass Details

Date: 02 July 2022
Orbit: 620 x 637 km, 98.2° (Epoch: 06 August)

Event Time Altitude Azimuth Distance (km) Brightness Sun altitude
Rises 00:35:36 0° 15° (NNE) 2,935 ? -16.1°
Reaches altitude 10° 00:37:49 10° 16° (NNE) 2,020 ? -16.3°
Maximum altitude 00:42:13 78° 103° (ESE) 646 ? -16.5°
Enters shadow 00:44:26 29° 187° (S) 1,156 ? -16.6°
